Farmington, NM

5:49 AM MST on January 24, 2018 (GMT -0700)
Four Corners Regional

Weather History for KFMN - June, 2014

Change the Weather History Date:

Friday, June 6, 2014

  Actual Average Record
Temperature  
Mean Temperature 69 °F -  
Max Temperature 91 °F 82 °F 99 °F (2006)
Min Temperature 48 °F 47 °F 36 °F (1999)
Cooling Degree Days 4    
Growing Degree Days 19 (Base 50)    
Moisture  
Dew Point 3 °F    
Average Humidity 9    
Maximum Humidity 25    
Minimum Humidity 4    
Precipitation  
Precipitation 0.00 in - - ()
Sea Level Pressure  
Sea Level Pressure 29.75 in    
Wind  
Wind Speed 8 mph (NE)    
Max Wind Speed 17 mph    
Max Gust Speed 23 mph    
Visibility 10 miles    
Events      
Averages and records for this station are not official NWS values.
T = Trace of Precipitation, MM = Missing Value Source: NWS Daily Summary

Daily Weather History Graph

Daily Weather History Graph

Search for Another Location

Airport or City:

Trip Planner

Search our weather history database for the weather conditions in past years. The results will help you decide how hot, cold, wet, or windy it might be!

Date:

Astronomy

Jun. 06, 2014 Rise Set
Actual Time 5:54 AM MDT 8:29 PM MDT
Civil Twilight 5:23 AM MDT 8:59 PM MDT
Nautical Twilight 4:46 AM MDT 9:37 PM MDT
Astronomical Twilight 4:04 AM MDT 10:19 PM MDT
Moon 2:00 PM MDT (6/6) 1:37 AM MDT (6/6)
Length of Visible Light 15h 35m
Length of Day
14h 35m
First Quarter, 59% of the Moon is Illuminated
Jun 6
First Quarter
Jun 12
Full
Jun 19
Last Quarter
Jun 27
New
Jul 5
First Quarter

Hourly Weather History & Observations

Time (MDT) Temp. Dew Point Humidity Pressure Visibility Wind Dir Wind Speed Gust Speed Precip Events Conditions
12:53 AM 54.0 °F 3.0 °F 13% 29.78 in 10.0 mi NNE 9.2 mph - N/A   Clear
1:53 AM 53.1 °F 3.0 °F 13% 29.78 in 10.0 mi NE 5.8 mph - N/A   Clear
2:53 AM 48.9 °F 1.9 °F 15% 29.78 in 10.0 mi ENE 9.2 mph - N/A   Clear
3:53 AM 48.9 °F 8.1 °F 19% 29.78 in 10.0 mi NE 8.1 mph - N/A   Clear
4:53 AM 51.1 °F 14.0 °F 23% 29.79 in 10.0 mi ESE 6.9 mph - N/A   Clear
5:53 AM 48.9 °F 14.0 °F 25% 29.79 in 10.0 mi East 6.9 mph - N/A   Clear
6:53 AM 52.0 °F 17.1 °F 25% 29.80 in 10.0 mi East 5.8 mph - N/A   Clear
7:53 AM 57.0 °F 15.1 °F 19% 29.81 in 10.0 mi ESE 10.4 mph - N/A   Clear
9:53 AM 72.0 °F 18.0 °F 13% 29.80 in 10.0 mi SE 9.2 mph - N/A   Clear
10:53 AM 77.0 °F 8.1 °F 7% 29.80 in 10.0 mi SSE 6.9 mph - N/A   Clear
11:53 AM 82.0 °F -2.9 °F 4% 29.79 in 10.0 mi Calm Calm - N/A   Clear
12:53 PM 84.9 °F -6.0 °F 4% 29.78 in 10.0 mi Calm Calm - N/A   Clear
1:53 PM 88.0 °F -0.0 °F 4% 29.75 in 10.0 mi Variable 4.6 mph - N/A   Clear
2:53 PM 90.0 °F -8.0 °F 4% 29.73 in 10.0 mi WSW 17.3 mph 23.0 mph N/A   Clear
3:53 PM 91.0 °F -13.0 °F 4% 29.71 in 10.0 mi NW 10.4 mph - N/A   Clear
4:53 PM 89.1 °F -9.9 °F 4% 29.69 in 10.0 mi Variable 5.8 mph - N/A   Clear
5:53 PM 89.1 °F -7.1 °F 4% 29.69 in 10.0 mi West 10.4 mph - N/A   Clear
6:53 PM 88.0 °F -5.1 °F 4% 29.68 in 10.0 mi WNW 13.8 mph 17.3 mph N/A   Clear
7:53 PM 84.9 °F -2.0 °F 4% 29.69 in 10.0 mi WNW 6.9 mph - N/A   Clear
8:53 PM 75.9 °F -0.0 °F 5% 29.71 in 10.0 mi NNW 6.9 mph - N/A   Clear
9:53 PM 73.9 °F -0.0 °F 5% 29.70 in 10.0 mi North 4.6 mph - N/A   Clear
10:53 PM 62.1 °F 3.0 °F 9% 29.74 in 10.0 mi North 8.1 mph - N/A   Clear
11:53 PM 60.1 °F 6.1 °F 12% 29.73 in 10.0 mi NE 8.1 mph - N/A   Clear